DECAYED

OBJECT AH, 57035 (Decayed)

Orbit data source: Space-Track

You're viewing an Uncataloged Satellite

Recently launched and/or uncataloged satellites may have evolving metadata. Metadata may include but not limited to: Owner, Maufacturer, Bus, Motor, and Mission.

OBJECT AH, 57035 was a Chinese satellite in LEO that was launched on Thu, 15 Jun 2023 UTC via a CHANG ZHENG 2D launch vehicle from the Taiyaun Space Center, China (TSC). Unknown objects in Earth's orbit typically refer to objects detected orbiting the Earth but have not yet been identified or cataloged. These objects could be anything from previously untracked satellites, spent rocket stages, debris from satellite collisions, or even natural meteoroids temporarily captured by Earth's gravity. This object's orbit decayed before it could be identified.

Not visible in the next 10 days
Identifier
57035, 2023-085AH
Orbit
Decayed
Country
Flag of CNCN / PRC
Related business
None
Manufacturer
Unknown
Mission
Decayed Commercial Imaging
Bus & Motor
Unknown
Mass
Unknown
Launch date (UTC)
2023-06-15 (3 years ago)
Launch vehicle
CHANG ZHENG 2D
Launch site
Taiyaun Space Center, China (TSC)
Object type
Unknown
Shape & HBR
Box, 0.8 m
Radar Cross Section
2.000 m², Medium (>0.1 m² and < 1m²)

Expand to show TLE details & history
Last TLE update: 8 months ago

TLE from 8 months ago
0 OBJECT AH
1 57035U 23085AH  25284.23154418  .18389639  26343-5  34032-3 0  9992
2 57035  97.4509  47.0059 0009542 264.0190  96.0025 16.47011739129859
Epoch: 2025-10-11T05:33Z
TLE epoch observation values (Epoch: 2025-10-11T05:33:25.417Z)
Latitude
-0.00006°
Longitude
-56.41599°
Altitude
151.133 km
Speed
7.815 km/s
True Right ascension
03h 08m 01s
True Declination
0° 00' 00"
Sunlit
Object was in full shadow at epoch
Visualization orbit readout
Latitude
Unknown
Longitude
Unknown
Altitude
Unknown
Speed
Unknown
Apparent Right ascension
Unknown
Apparent Declination
Unknown
Sunlit
N/A
Visualization observer readout
Local Sidereal Time
21:31:10
Azimuth
Unknown
Elevation
Unknown
Doppler factor
Unknown
Orbital elements
Apogee altitude
150.241 km
Perigee altitude
137.794 km
Semi-major axis
6,522.154 km
Eccentricity
0.00095
Inclination
97.4509°
RAAN
47.0059°
Arg. of periapsis
264.019°
True anomaly
96.11123°
Mean anomaly
96.0025°
Eccentric anomaly
96.05687°
Mean motion
4.12056 °/min
Orbital period
87.37 mins
BSTAR
0.00034032
Loading maneuver chart data...
Computing Atmospheric mass density...
Loading historical data...
Loading historical data...
Loading historical data...
Loading historical data...
Loading historical data...
Loading historical data...
Loading historical data...

Documentation

Showing up to 5 results
|